| time (UTC) | temp F | wind direction | speed MPH | gust MPH | rain 1hr in | rain 24hr in | rain mn in | humidity % | barometer mb |
| 20260831185852 | 97 | 351 | 10.0 | 12.0 | 0.00 | 0.00 | 0.00 | 28 | 1013.4 |
| 20260831184828 | 96 | 351 | 10.0 | 10.0 | 0.00 | 0.00 | 0.00 | 28 | 1013.4 |
| 20260831183804 | 96 | 351 | 6.0 | 12.0 | 0.00 | 0.00 | 0.00 | 29 | 1013.4 |
| 20260831182740 | 96 | 351 | 8.0 | 10.0 | 0.00 | 0.00 | 0.00 | 30 | 1014.4 |
| 20260831181716 | 95 | 351 | 9.0 | 11.0 | 0.00 | 0.00 | 0.00 | 32 | 1014.4 |
| 20260831180639 | 94 | 351 | 10.0 | 11.0 | 0.00 | 0.00 | 0.00 | 33 | 1014.4 |
| 20260831175615 | 94 | 351 | 6.0 | 10.0 | 0.00 | 0.00 | 0.00 | 34 | 1014.4 |
| 20260831174552 | 94 | 351 | 7.0 | 10.0 | 0.00 | 0.00 | 0.00 | 36 | 1014.4 |
| 20260831173527 | 93 | 351 | 7.0 | 9.0 | 0.00 | 0.00 | 0.00 | 37 | 1014.4 |
| 20260831172503 | 92 | 351 | 5.0 | 10.0 | 0.00 | 0.00 | 0.00 | 38 | 1014.4 |
| 20260831171436 | 91 | 351 | 10.0 | 11.0 | 0.00 | 0.00 | 0.00 | 40 | 1015.4 |
| 20260831170412 | 90 | 351 | 7.0 | 9.0 | 0.00 | 0.00 | 0.00 | 40 | 1015.4 |
| 20260831165344 | 90 | 351 | 8.0 | 16.0 | 0.00 | 0.00 | 0.00 | 43 | 1015.4 |
| 20260831164321 | 88 | 351 | 7.0 | 10.0 | 0.00 | 0.00 | 0.00 | 44 | 1015.4 |
| 20260831163258 | 87 | 351 | 10.0 | 11.0 | 0.00 | 0.00 | 0.00 | 47 | 1015.4 |
| 20260831162229 | 87 | 351 | 6.0 | 12.0 | 0.00 | 0.00 | 0.00 | 49 | 1015.4 |
| 20260831161207 | 86 | 351 | 7.0 | 9.0 | 0.00 | 0.00 | 0.00 | 50 | 1015.4 |
| 20260831160143 | 85 | 351 | 9.0 | 11.0 | 0.00 | 0.00 | 0.00 | 54 | 1015.4 |
| 20260831155111 | 84 | 351 | 7.0 | 8.0 | 0.00 | 0.00 | 0.00 | 56 | 1016.4 |
| 20260831154043 | 84 | 351 | 9.0 | 10.0 | 0.00 | 0.00 | 0.00 | 56 | 1016.4 |
| 20260831150933 | 83 | 347 | 8.0 | 12.0 | 0.00 | 0.00 | 0.00 | 58 | 1015.4 |
| 20260831145905 | 83 | 351 | 6.0 | 10.0 | 0.00 | 0.00 | 0.00 | 61 | 1015.4 |
| 20260831144842 | 82 | 347 | 7.0 | 9.0 | 0.00 | 0.00 | 0.00 | 62 | 1015.4 |
| 20260831143819 | 82 | 347 | 8.0 | 10.0 | 0.00 | 0.00 | 0.00 | 62 | 1016.4 |
| 20260831142756 | 81 | 351 | 10.0 | 9.0 | 0.00 | 0.00 | 0.00 | 63 | 1016.4 |
| 20260831141733 | 81 | 351 | 10.0 | 10.0 | 0.00 | 0.00 | 0.00 | 65 | 1016.4 |
| 20260831140705 | 80 | 347 | 7.0 | 12.0 | 0.00 | 0.00 | 0.00 | 66 | 1016.4 |
| 20260831135642 | 80 | 347 | 9.0 | 12.0 | 0.00 | 0.00 | 0.00 | 67 | 1015.4 |
| 20260831134618 | 79 | 347 | 10.0 | 11.0 | 0.00 | 0.00 | 0.00 | 70 | 1015.4 |
| 20260831133555 | 79 | 347 | 8.0 | 10.0 | 0.00 | 0.00 | 0.00 | 73 | 1016.4 |
| 20260831132532 | 78 | 347 | 9.0 | 12.0 | 0.00 | 0.00 | 0.00 | 75 | 1016.4 |
| 20260831131509 | 78 | 347 | 9.0 | 11.0 | 0.00 | 0.00 | 0.00 | 79 | 1016.4 |
| 20260831130446 | 77 | 347 | 9.0 | 11.0 | 0.00 | 0.00 | 0.00 | 83 | 1016.4 |
| 20260831124401 | 75 | 347 | 9.0 | 11.0 | 0.00 | 0.00 | 0.00 | 84 | 1015.4 |
| 20260831123337 | 75 | 347 | 9.0 | 11.0 | 0.00 | 0.00 | 0.00 | 83 | 1015.4 |
| 20260831122314 | 75 | 347 | 8.0 | 12.0 | 0.00 | 0.00 | 0.00 | 82 | 1015.4 |
| 20260831121251 | 75 | 347 | 8.0 | 11.0 | 0.00 | 0.00 | 0.00 | 80 | 1015.4 |
| 20260831120228 | 76 | 347 | 9.0 | 11.0 | 0.00 | 0.00 | 0.00 | 79 | 1015.4 |
| 20260831115205 | 76 | 347 | 9.0 | 11.0 | 0.00 | 0.00 | 0.00 | 78 | 1015.4 |
| 20260831114142 | 76 | 347 | 9.0 | 10.0 | 0.00 | 0.00 | 0.00 | 77 | 1015.4 |
| 20260831113119 | 76 | 347 | 10.0 | 11.0 | 0.00 | 0.00 | 0.00 | 77 | 1015.4 |
| 20260831112056 | 76 | 347 | 9.0 | 11.0 | 0.00 | 0.00 | 0.00 | 77 | 1015.4 |
| 20260831111033 | 76 | 347 | 9.0 | 11.0 | 0.00 | 0.00 | 0.00 | 76 | 1015.4 |
| 20260831110010 | 76 | 351 | 10.0 | 11.0 | 0.00 | 0.00 | 0.00 | 76 | 1015.4 |
| 20260831104947 | 76 | 347 | 10.0 | 10.0 | 0.00 | 0.00 | 0.00 | 75 | 1015.4 |
| 20260831103924 | 76 | 347 | 9.0 | 12.0 | 0.00 | 0.00 | 0.00 | 75 | 1015.4 |
| 20260831102902 | 76 | 347 | 8.0 | 11.0 | 0.00 | 0.00 | 0.00 | 73 | 1015.4 |
| 20260831101839 | 76 | 347 | 9.0 | 11.0 | 0.00 | 0.00 | 0.00 | 72 | 1015.4 |
| 20260831095753 | 77 | 351 | 9.0 | 11.0 | 0.00 | 0.00 | 0.00 | 69 | 1015.4 |
| 20260831094730 | 77 | 351 | 9.0 | 11.0 | 0.00 | 0.00 | 0.00 | 69 | 1015.4 |
| 20260831093707 | 77 | 351 | 7.0 | 10.0 | 0.00 | 0.00 | 0.00 | 68 | 1015.4 |
| 20260831092643 | 77 | 351 | 8.0 | 10.0 | 0.00 | 0.00 | 0.00 | 67 | 1015.4 |
| 20260831091620 | 77 | 351 | 8.0 | 10.0 | 0.00 | 0.00 | 0.00 | 66 | 1015.4 |
| 20260831090557 | 78 | 347 | 7.0 | 8.0 | 0.00 | 0.00 | 0.00 | 65 | 1015.4 |
| 20260831085534 | 78 | 351 | 7.0 | 9.0 | 0.00 | 0.00 | 0.00 | 63 | 1015.4 |
| 20260831084511 | 78 | 351 | 6.0 | 9.0 | 0.00 | 0.00 | 0.00 | 61 | 1015.4 |
| 20260831083444 | 79 | 351 | 6.0 | 8.0 | 0.00 | 0.00 | 0.00 | 59 | 1015.4 |
| 20260831082421 | 79 | 351 | 6.0 | 7.0 | 0.00 | 0.00 | 0.00 | 58 | 1015.4 |
| 20260831081348 | 79 | 351 | 6.0 | 9.0 | 0.00 | 0.00 | 0.00 | 57 | 1015.4 |
| 20260831080357 | 80 | 351 | 7.0 | 9.0 | 0.00 | 0.00 | 0.00 | 56 | 1015.4 |
| 20260831080325 | 80 | 351 | 7.0 | 9.0 | 0.00 | 0.00 | 0.00 | 56 | 1015.4 |
| 20260831075258 | 80 | 351 | 8.0 | 10.0 | 0.00 | 0.00 | 0.00 | 54 | 1015.4 |
| 20260831074234 | 80 | 351 | 8.0 | 9.0 | 0.00 | 0.00 | 0.00 | 52 | 1015.4 |
| 20260831073204 | 81 | 351 | 8.0 | 11.0 | 0.00 | 0.00 | 0.00 | 52 | 1015.4 |
| 20260831072142 | 81 | 351 | 7.0 | 12.0 | 0.00 | 0.00 | 0.00 | 51 | 1015.4 |
| 20260831071118 | 81 | 351 | 7.0 | 12.0 | 0.00 | 0.00 | 0.00 | 51 | 1015.4 |
| 20260831070055 | 81 | 351 | 9.0 | 12.0 | 0.00 | 0.00 | 0.00 | 49 | 1015.4 |
| 20260831065031 | 81 | 351 | 10.0 | 12.0 | 0.00 | 0.00 | 0.00 | 48 | 1015.4 |
| 20260831062942 | 82 | 351 | 11.0 | 13.0 | 0.00 | 0.00 | 0.00 | 46 | 1015.4 |
| 20260831061919 | 82 | 351 | 12.0 | 15.0 | 0.00 | 0.00 | 0.00 | 45 | 1015.4 |
| 20260831060856 | 82 | 351 | 11.0 | 15.0 | 0.00 | 0.00 | 0.00 | 44 | 1015.4 |
| 20260831055833 | 83 | 351 | 11.0 | 15.0 | 0.00 | 0.00 | 0.00 | 43 | 1014.4 |
| 20260831054809 | 83 | 351 | 11.0 | 13.0 | 0.00 | 0.00 | 0.00 | 42 | 1014.4 |
| 20260831053746 | 83 | 351 | 13.0 | 18.0 | 0.00 | 0.00 | 0.00 | 42 | 1014.4 |
| 20260831052723 | 84 | 351 | 12.0 | 15.0 | 0.00 | 0.00 | 0.00 | 42 | 1014.4 |
| 20260831051701 | 84 | 351 | 11.0 | 14.0 | 0.00 | 0.00 | 0.00 | 42 | 1014.4 |
| 20260831050637 | 85 | 351 | 13.0 | 16.0 | 0.00 | 0.00 | 0.00 | 42 | 1014.4 |
| 20260831045613 | 85 | 351 | 15.0 | 18.0 | 0.00 | 0.00 | 0.00 | 41 | 1014.4 |
| 20260831044550 | 85 | 351 | 12.0 | 18.0 | 0.00 | 0.00 | 0.00 | 40 | 1014.4 |
| 20260831042504 | 86 | 351 | 15.0 | 20.0 | 0.00 | 0.00 | 0.00 | 39 | 1014.4 |
| 20260831041440 | 86 | 351 | 17.0 | 22.0 | 0.00 | 0.00 | 0.00 | 39 | 1014.4 |
| 20260831040418 | 86 | 351 | 12.0 | 24.0 | 0.00 | 0.00 | 0.00 | 39 | 1013.4 |
| 20260831035355 | 86 | 351 | 17.0 | 18.0 | 0.00 | 0.00 | 0.00 | 39 | 1013.4 |
| 20260831034331 | 86 | 351 | 15.0 | 15.0 | 0.00 | 0.00 | 0.00 | 37 | 1013.4 |
| 20260831033308 | 86 | 351 | 13.0 | 13.0 | 0.00 | 0.00 | 0.00 | 34 | 1013.4 |
| 20260831032245 | 86 | 351 | 13.0 | 12.0 | 0.00 | 0.00 | 0.00 | 33 | 1013.4 |
| 20260831031221 | 86 | 351 | 9.0 | 11.0 | 0.00 | 0.00 | 0.00 | 32 | 1013.4 |
| 20260831030158 | 87 | 351 | 9.0 | 11.0 | 0.00 | 0.00 | 0.00 | 31 | 1013.4 |
| 20260831025135 | 87 | 351 | 9.0 | 9.0 | 0.00 | 0.00 | 0.00 | 31 | 1012.4 |
| 20260831024111 | 87 | 351 | 7.0 | 10.0 | 0.00 | 0.00 | 0.00 | 31 | 1012.4 |
| 20260831023048 | 88 | 351 | 8.0 | 10.0 | 0.00 | 0.00 | 0.00 | 30 | 1012.4 |
| 20260831022025 | 88 | 351 | 8.0 | 9.0 | 0.00 | 0.00 | 0.00 | 30 | 1012.4 |
| 20260831021001 | 88 | 351 | 7.0 | 10.0 | 0.00 | 0.00 | 0.00 | 29 | 1012.4 |
| 20260831015938 | 89 | 351 | 7.0 | 8.0 | 0.00 | 0.00 | 0.00 | 29 | 1011.4 |
| 20260831013851 | 90 | 351 | 7.0 | 8.0 | 0.00 | 0.00 | 0.00 | 28 | 1011.4 |
| 20260831012827 | 91 | 351 | 7.0 | 9.0 | 0.00 | 0.00 | 0.00 | 27 | 1011.4 |
| 20260831011804 | 92 | 351 | 8.0 | 10.0 | 0.00 | 0.00 | 0.00 | 27 | 1011.4 |
| 20260831010740 | 92 | 351 | 8.0 | 10.0 | 0.00 | 0.00 | 0.00 | 26 | 1011.4 |
| 20260831005717 | 93 | 351 | 8.0 | 10.0 | 0.00 | 0.00 | 0.00 | 25 | 1011.4 |
| 20260831004653 | 94 | 351 | 7.0 | 10.0 | 0.00 | 0.00 | 0.00 | 23 | 1011.4 |
| 20260831003629 | 94 | 351 | 8.0 | 11.0 | 0.00 | 0.00 | 0.00 | 22 | 1010.4 |
| 20260831002606 | 95 | 351 | 9.0 | 11.0 | 0.00 | 0.00 | 0.00 | 21 | 1010.4 |
| 20260831001542 | 95 | 351 | 9.0 | 13.0 | 0.00 | 0.00 | 0.00 | 21 | 1010.4 |
| 20260831000518 | 96 | 351 | 10.0 | 13.0 | 0.00 | 0.00 | 0.00 | 20 | 1010.4 |
| 20260830235455 | 96 | 351 | 10.0 | 13.0 | 0.00 | 0.00 | 0.00 | 19 | 1010.4 |
| 20260830234430 | 97 | 351 | 12.0 | 15.0 | 0.00 | 0.00 | 0.00 | 19 | 1010.4 |
| 20260830233407 | 97 | 351 | 10.0 | 15.0 | 0.00 | 0.00 | 0.00 | 19 | 1010.4 |
| 20260830232343 | 97 | 351 | 12.0 | 15.0 | 0.00 | 0.00 | 0.00 | 19 | 1010.4 |
| 20260830231320 | 97 | 351 | 12.0 | 15.0 | 0.00 | 0.00 | 0.00 | 19 | 1010.4 |
| 20260830230256 | 98 | 351 | 11.0 | 16.0 | 0.00 | 0.00 | 0.00 | 19 | 1010.4 |
| 20260830225232 | 98 | 351 | 8.0 | 15.0 | 0.00 | 0.00 | 0.00 | 19 | 1010.4 |
| 20260830224208 | 99 | 351 | 11.0 | 15.0 | 0.00 | 0.00 | 0.00 | 19 | 1010.4 |
| 20260830223144 | 99 | 351 | 8.0 | 14.0 | 0.00 | 0.00 | 0.00 | 18 | 1010.4 |
| 20260830222120 | 99 | 351 | 12.0 | 15.0 | 0.00 | 0.00 | 0.00 | 19 | 1010.4 |
| 20260830221056 | 100 | 351 | 10.0 | 16.0 | 0.00 | 0.00 | 0.00 | 18 | 1010.4 |
| 20260830220033 | 100 | 351 | 9.0 | 17.0 | 0.00 | 0.00 | 0.00 | 19 | 1010.4 |
| 20260830215009 | 100 | 351 | 9.0 | 15.0 | 0.00 | 0.00 | 0.00 | 19 | 1010.4 |
| 20260830213945 | 100 | 351 | 7.0 | 15.0 | 0.00 | 0.00 | 0.00 | 19 | 1010.4 |
| 20260830212921 | 100 | 351 | 9.0 | 14.0 | 0.00 | 0.00 | 0.00 | 19 | 1010.4 |
| 20260830211857 | 99 | 351 | 9.0 | 12.0 | 0.00 | 0.00 | 0.00 | 19 | 1010.4 |
| 20260830210833 | 99 | 351 | 10.0 | 17.0 | 0.00 | 0.00 | 0.00 | 19 | 1010.4 |
| 20260830205809 | 99 | 351 | 9.0 | 15.0 | 0.00 | 0.00 | 0.00 | 19 | 1011.4 |
| 20260830204745 | 100 | 351 | 9.0 | 18.0 | 0.00 | 0.00 | 0.00 | 19 | 1011.4 |
| 20260830203721 | 101 | 351 | 7.0 | 16.0 | 0.00 | 0.00 | 0.00 | 19 | 1011.4 |
| 20260830202657 | 101 | 351 | 10.0 | 13.0 | 0.00 | 0.00 | 0.00 | 19 | 1011.4 |
| 20260830201632 | 101 | 351 | 10.0 | 16.0 | 0.00 | 0.00 | 0.00 | 19 | 1011.4 |
| 20260830200605 | 101 | 351 | 7.0 | 13.0 | 0.00 | 0.00 | 0.00 | 20 | 1011.4 |
| 20260830195541 | 100 | 351 | 11.0 | 16.0 | 0.00 | 0.00 | 0.00 | 20 | 1012.4 |
| 20260830194517 | 100 | 351 | 8.0 | 11.0 | 0.00 | 0.00 | 0.00 | 22 | 1012.4 |
| 20260830193453 | 99 | 351 | 10.0 | 14.0 | 0.00 | 0.00 | 0.00 | 21 | 1012.4 |
| 20260830192430 | 99 | 351 | 9.0 | 11.0 | 0.00 | 0.00 | 0.00 | 23 | 1012.4 |